[[{"header":{"parameterUnit":"m.s-1","parameterCategory":2,"la1":30.2991,"la2":30.254,"lo1":-89.0895,"lo2":-89.0444,"dy":0.0017,"dx":0.0017,"nx":28,"ny":28,"refTime":"2023-11-21T03:00:00:Z","depth":"0","parameterNumber":2,"parameterNumberName":"U-component_of_CURRENTS"},"data":[0,0,0,0,0,0,0,0,0,0,0,0,0,0,0,0,0,0,0,0,0,0,0,0,0,0,0,0,0,0,0,0,0,0,0,0,0,0,0,0,0,0,0,0,0,0,0,0,0,0,0,0,0,0,0,0,0,0,0.2244,0.2244,0,0.2239,0.2239,0.2239,0.2236,0.2236,0.2236,0.2236,0.2232,0.2232,0.2232,0,0,0,0,0,0,0,0,0,0,0,0,0,0.2276,0.2275,0.2244,0.2244,0.2244,0.2239,0.2239,0.2239,0.2236,0.2236,0.2236,0.2236,0.2232,0.2232,0.2232,0,0,0,0,0,0,0,0,0,0,0,0,0,0.2265,0.2275,0.2244,0.2242,0.2242,0.2239,0.2239,0.2239,0.2236,0.2236,0.2236,0.2236,0.2232,0.2232,0.2232,0.223,0,0,0.2231,0.2231,0,0,0,0,0,0,0,0,0.2266,0.2264,0.2243,0.2243,0.2242,0.2238,0.2248,0.2236,0.2236,0.2238,0.2236,0.2236,0.2234,0.2234,0.2233,0.223,0.223,0.2231,0.2231,0.2231,0.2231,0,0,0,0,0,0,0,0.2267,0.2265,0.2242,0.2243,0.2242,0.225,0.2248,0.2246,0.2236,0.2238,0.2238,0.2238,0.2234,0.2233,0.2233,0.223,0.2231,0.2231,0.2231,0.2231,0.2301,0.2303,0,0,0,0,0,0,0.2266,0.2265,0.2242,0.2242,0.2255,0.2249,0.2247,0.224,0.2236,0.2236,0.2238,0.2238,0.2233,0.2233,0.2232,0.2298,0.2231,0.2231,0.2231,0.2299,0.2301,0.2303,0,0,0,0,0,0,0.2267,0.2264,0.2242,0.2254,0.2252,0.2248,0.224,0.2239,0.2243,0.2236,0.2235,0.2242,0.2233,0.2233,0.2248,0.2295,0.2231,0.223,0.2297,0.23,0.2302,0.2385,0,0,0,0,0,0,0.2267,0.2264,0.2267,0.2254,0.2251,0.226,0.224,0.2239,0.2242,0.2242,0.2239,0.2238,0.2233,0.2249,0.2248,0.2294,0.223,0.2294,0.2298,0.2301,0.238,0.2391,0.24,0,0,0,0,0,0.2268,0.2273,0.2267,0.2265,0.2253,0.2261,0.2261,0.2259,0.2242,0.2258,0.2254,0.2239,0.2273,0.225,0.2249,0.2295,0.2292,0.2297,0.2301,0.2376,0.2389,0.24,0,0,0,0,0,0,0.2281,0.2272,0.2266,0.2265,0.2272,0.2261,0.2273,0.2261,0.2268,0.2269,0.2252,0.2252,0.2289,0.2276,0.2251,0.2328,0.2285,0.2289,0.2342,0.2354,0.2364,0.2392,0.223,0,0,0,0,0,0.2286,0.2292,0.2284,0.2286,0.2291,0.2281,0.2284,0.2283,0.2282,0.2284,0.2275,0.2281,0.2306,0.2315,0.2327,0.2356,0.2385,0.239,0.24,0.2409,0.2432,0.2532,0.2554,0.2318,0.2318,0.2318,0,0,0.2291,0.2287,0.229,0.2291,0.2293,0.2321,0.2283,0.2297,0.2325,0.2283,0.2312,0.231,0.2321,0.2366,0.2382,0.2361,0.2488,0.2414,0.2421,0.2441,0.2539,0.2562,0.2583,0.2321,0.2321,0.232,0,0,0.2323,0.2302,0.2332,0.2342,0.2355,0.2352,0.2357,0.2352,0.2357,0.2383,0.2371,0.2399,0.2411,0.2441,0.2457,0.2527,0.2536,0.2527,0.2601,0.2698,0.2719,0.2737,0.279,0.2813,0.2534,0.2534,0.2534,0,0.2336,0.236,0.2343,0.238,0.2394,0.237,0.2411,0.2418,0.2418,0.2437,0.2409,0.246,0.246,0.2538,0.2569,0.2553,0.2595,0.2553,0.2713,0.2732,0.275,0.28,0.2824,0.2538,0.2538,0.2537,0.2537,0,0.2404,0.242,0.2436,0.2476,0.2492,0.2516,0.2524,0.2539,0.253,0.2542,0.2596,0.2593,0.2633,0.2636,0.2627,0.2749,0.2732,0.2714,0.2685,0.2779,0.2824,0.2848,0.2545,0.2543,0.2542,0.2541,0,0,0.2439,0.2477,0.2484,0.2514,0.254,0.256,0.2608,0.2651,0.2694,0.2696,0.2764,0.2797,0.2789,0.2808,0.2793,0.2866,0.3015,0.2851,0.2854,0.2907,0.3216,0.3117,0.3132,0.3035,0.304,0.3044,0.3192,0,0.25,0.2574,0.2579,0.265,0.2687,0.2682,0.2729,0.2766,0.2789,0.2847,0.286,0.2916,0.2857,0.2883,0.2953,0.3004,0.3085,0.2976,0.3114,0.3118,0.3023,0.316,0.2936,0.3044,0.3215,0.3219,0.3222,0,0.259,0.2612,0.2694,0.2734,0.2751,0.2789,0.2855,0.2895,0.2969,0.299,0.3044,0.3055,0.3149,0.3088,0.3235,0.3173,0.3217,0.3242,0.3249,0.3149,0.3064,0.2981,0.308,0.297,0.3258,0.3255,0.3252,0,0.2658,0.2703,0.2764,0.2781,0.2826,0.2857,0.2876,0.2943,0.2993,0.3088,0.3144,0.323,0.3282,0.3366,0.3395,0.3351,0.3555,0.3498,0.3445,0.3436,0.327,0.3238,0.3283,0.3639,0.3639,0.3639,0.3638,0,0.2745,0.2797,0.2791,0.2833,0.2882,0.2902,0.2987,0.3013,0.3097,0.3166,0.3218,0.3283,0.3365,0.346,0.3484,0.3537,0.3633,0.3499,0.3494,0.3287,0.3256,0.3168,0.3134,0.3644,0.3643,0.3642,0.3641,0,0.284,0.2858,0.2908,0.2921,0.293,0.2962,0.3021,0.307,0.3149,0.3245,0.3283,0.3385,0.3493,0.3554,0.369,0.3638,0.3586,0.3695,0.3419,0.3378,0.3183,0.3161,0.3141,0.3059,0.3671,0.367,0.3669,0,0.2914,0.2943,0.2945,0.2951,0.2955,0.2999,0.3022,0.3089,0.3132,0.328,0.3315,0.3463,0.3515,0.366,0.363,0.3673,0.3571,0.347,0.3343,0.3183,0.3157,0.305,0.2976,0.3152,0.3147,0.3143,0.3139,0,0.299,0.2975,0.2977,0.2981,0.2995,0.3017,0.3046,0.309,0.3165,0.3239,0.332,0.3388,0.3496,0.3431,0.3476,0.345,0.3262,0.3383,0.3311,0.2849,0.2647,0.2558,0.3022,0.3102,0.3106,0.3108,0.311,0.3112,0.3009,0.2992,0.2975,0.2973,0.2991,0.2994,0.2983,0.3016,0.307,0.3104,0.3226,0.3228,0.3211,0.3231,0.3207,0.2964,0.3046,0.2813,0.2831,0.2761,0.2586,0.2952,0.2961,0.2963,0.2966,0.2968,0.297,0,0.2993,0.2968,0.2963,0.2951,0.2942,0.2962,0.2962,0.2911,0.2901,0.2947,0.2983,0.2877,0.2781,0.2738,0.2537,0.2414,0.2298,0.2336,0.2133,0.2115,0.2514,0.239,0.216,0.216,0.216,0.216,0.2161,0.2161,0.2988,0.2953,0.2929,0.2894,0.288,0.2799,0.276,0.2691,0.2674,0.2555,0.2461,0.2467,0.2412,0.2247,0.2034,0.1975,0.1855,0.174,0.1841,0.2095,0.2139,0.2182,0.2056,0.176,0.176,0.1276,0.1273,0.127]},{"header":{"parameterUnit":"m.s-1","parameterCategory":2,"la1":30.2991,"la2":30.254,"lo1":-89.0895,"lo2":-89.0444,"dy":0.0017,"dx":0.0017,"nx":28,"ny":28,"refTime":"2023-11-21T03:00:00:Z","depth":"0","parameterNumber":3,"parameterNumberName":"V-component_of_CURRENTS"},"data":[0,0,0,0,0,0,0,0,0,0,0,0,0,0,0,0,0,0,0,0,0,0,0,0,0,0,0,0,0,0,0,0,0,0,0,0,0,0,0,0,0,0,0,0,0,0,0,0,0,0,0,0,0,0,0,0,0,0,-0.0403,-0.0403,0,-0.0411,-0.0411,-0.0411,-0.0425,-0.0425,-0.0425,-0.0426,-0.0433,-0.0433,-0.0433,0,0,0,0,0,0,0,0,0,0,0,0,0,-0.0414,-0.0413,-0.0403,-0.0403,-0.0403,-0.0411,-0.0411,-0.0411,-0.0425,-0.0425,-0.0426,-0.0426,-0.0433,-0.0433,-0.0433,0,0,0,0,0,0,0,0,0,0,0,0,0,-0.0414,-0.0413,-0.0403,-0.041,-0.0411,-0.0411,-0.0411,-0.0411,-0.0425,-0.0425,-0.0426,-0.0426,-0.0433,-0.0433,-0.0433,-0.0426,0,0,-0.0433,-0.0433,0,0,0,0,0,0,0,0,-0.0414,-0.0414,-0.0409,-0.041,-0.0411,-0.0417,-0.0417,-0.0416,-0.0425,-0.042,-0.0426,-0.0426,-0.0427,-0.0428,-0.0429,-0.0426,-0.0427,-0.0433,-0.0433,-0.0433,-0.0433,0,0,0,0,0,0,0,-0.0414,-0.0414,-0.0406,-0.0409,-0.041,-0.0418,-0.0419,-0.0417,-0.0422,-0.0421,-0.0421,-0.0422,-0.0428,-0.0429,-0.0429,-0.0427,-0.0433,-0.0433,-0.0433,-0.0433,-0.0438,-0.0438,0,0,0,0,0,0,-0.0411,-0.0413,-0.0406,-0.0406,-0.0413,-0.0418,-0.0418,-0.0415,-0.0422,-0.0423,-0.0421,-0.0422,-0.0429,-0.0429,-0.043,-0.0418,-0.0433,-0.0433,-0.0433,-0.0438,-0.0438,-0.0438,0,0,0,0,0,0,-0.0411,-0.041,-0.0406,-0.041,-0.041,-0.0417,-0.0413,-0.0415,-0.0418,-0.0422,-0.0424,-0.0423,-0.0429,-0.043,-0.0432,-0.0419,-0.0433,-0.0433,-0.0438,-0.0438,-0.0438,-0.0397,0,0,0,0,0,0,-0.0411,-0.041,-0.0409,-0.041,-0.041,-0.0405,-0.0413,-0.0415,-0.0417,-0.0418,-0.0424,-0.0425,-0.0429,-0.0432,-0.0432,-0.0419,-0.0433,-0.0437,-0.0438,-0.0438,-0.0398,-0.0396,-0.0394,0,0,0,0,0,-0.0412,-0.0405,-0.0409,-0.0408,-0.0407,-0.0405,-0.0406,-0.0412,-0.0417,-0.0416,-0.0423,-0.0425,-0.0434,-0.0432,-0.0432,-0.0418,-0.0437,-0.0438,-0.0438,-0.0399,-0.0396,-0.0394,0,0,0,0,0,0,-0.04,-0.0405,-0.041,-0.0403,-0.0405,-0.0407,-0.0408,-0.0411,-0.0416,-0.0418,-0.0424,-0.0425,-0.0422,-0.0431,-0.0429,-0.0424,-0.0437,-0.0437,-0.0408,-0.0405,-0.0403,-0.0374,-0.0433,0,0,0,0,0,-0.0399,-0.0399,-0.0403,-0.0396,-0.0399,-0.0404,-0.0405,-0.0408,-0.0411,-0.0414,-0.0415,-0.0421,-0.0423,-0.0423,-0.0427,-0.0421,-0.0402,-0.0416,-0.0414,-0.0412,-0.039,-0.0343,-0.0333,-0.0439,-0.0439,-0.0439,0,0,-0.0391,-0.0394,-0.0394,-0.0395,-0.0398,-0.0395,-0.0405,-0.0405,-0.0398,-0.0413,-0.0404,-0.0411,-0.0421,-0.0415,-0.0415,-0.042,-0.0377,-0.0412,-0.041,-0.0389,-0.0342,-0.0331,-0.0322,-0.0439,-0.0439,-0.0439,0,0,-0.038,-0.0381,-0.0383,-0.0384,-0.0389,-0.0389,-0.0388,-0.039,-0.0389,-0.0384,-0.0393,-0.0386,-0.0395,-0.0389,-0.039,-0.0378,-0.0367,-0.0392,-0.0353,-0.0307,-0.0297,-0.0288,-0.0265,-0.0254,-0.039,-0.039,-0.039,0,-0.0373,-0.0373,-0.0381,-0.0381,-0.0377,-0.0385,-0.0379,-0.0377,-0.0376,-0.0359,-0.0379,-0.0356,-0.0375,-0.0343,-0.0352,-0.0368,-0.035,-0.0359,-0.03,-0.0291,-0.0282,-0.0261,-0.0249,-0.0388,-0.0388,-0.0388,-0.0388,0,-0.0367,-0.0366,-0.0364,-0.0367,-0.036,-0.0357,-0.0353,-0.0338,-0.0337,-0.0327,-0.0295,-0.0308,-0.0287,-0.0303,-0.033,-0.0279,-0.029,-0.0301,-0.0299,-0.0268,-0.0249,-0.0238,-0.0385,-0.0386,-0.0386,-0.0387,0,0,-0.0368,-0.0362,-0.0364,-0.0348,-0.0353,-0.0334,-0.0319,-0.0293,-0.0244,-0.0254,-0.0192,-0.0216,-0.0207,-0.0209,-0.0227,-0.0201,-0.0149,-0.0229,-0.0227,-0.0191,-0.0057,-0.0098,-0.009,-0.0145,-0.0142,-0.014,-0.0074,0,-0.0368,-0.0348,-0.0354,-0.0324,-0.0309,-0.0299,-0.0266,-0.0236,-0.021,-0.015,-0.0152,-0.0106,-0.0177,-0.015,-0.0141,-0.0138,-0.0114,-0.0166,-0.0105,-0.0103,-0.0129,-0.0076,-0.0055,0.0003,-0.0063,-0.0061,-0.006,0,-0.0391,-0.0354,-0.0326,-0.027,-0.0261,-0.0236,-0.0154,-0.0128,-0.0061,-0.0032,0.0006,0.0012,0.004,-0.0014,0.0013,-0.0017,-0.0035,-0.0038,-0.0036,-0.0072,-0.0121,-0.0037,0.0027,-0.0044,-0.0042,-0.0043,-0.0044,0,-0.0389,-0.0354,-0.0316,-0.0302,-0.0232,-0.0196,-0.0157,-0.0086,-0.0021,0.0057,0.0129,0.0144,0.0187,0.0168,0.0115,0.0081,0.0155,0.011,0.0062,0.0058,0.009,0.0084,0.0111,0.0153,0.0153,0.0153,0.0153,0,-0.0404,-0.0375,-0.0299,-0.0267,-0.0162,-0.0153,-0.0044,0.0011,0.01,0.0206,0.0196,0.0291,0.024,0.0258,0.0185,0.0158,0.0209,0.0094,0.0087,0.0098,0.0093,0.0042,-0.0025,0.0155,0.0155,0.0154,0.0154,0,-0.0404,-0.0392,-0.0303,-0.0198,-0.016,-0.0073,0.0047,0.0139,0.0198,0.0341,0.0376,0.043,0.0452,0.0388,0.0375,0.027,0.0195,0.0214,0.0212,0.0203,0.0061,-0.0005,0.0009,-0.003,0.018,0.018,0.018,0,-0.04,-0.0357,-0.0209,-0.0131,-0.0076,0.0039,0.0132,0.0202,0.0298,0.0432,0.0517,0.0574,0.0636,0.058,0.0438,0.0334,0.023,0.0248,0.0178,0.0079,0.0002,-0.0048,-0.0085,0.0233,0.0233,0.0233,0.0233,0,-0.032,-0.0269,-0.0168,-0.0016,0.0092,0.0216,0.0332,0.0423,0.0509,0.0627,0.0754,0.0808,0.0757,0.068,0.0514,0.0409,0.0184,0.0244,0.0173,0.0076,-0.0,-0.005,0.0137,0.0234,0.0234,0.0234,0.0234,0.0234,-0.0221,-0.0134,-0.0019,0.0124,0.0239,0.036,0.046,0.058,0.0728,0.0896,0.0923,0.1048,0.0892,0.0683,0.0517,0.0228,0.0205,0.0135,0.0074,0.0041,-0.0026,0.0139,0.0198,0.0197,0.0197,0.0197,0.0197,0,-0.0101,-0.0033,0.0106,0.025,0.0364,0.0403,0.0574,0.0668,0.0835,0.1033,0.1144,0.118,0.0975,0.0718,0.032,0.0108,0.0025,-0.0009,-0.0051,-0.0076,0.0122,0.0093,0.0096,0.0096,0.0096,0.0096,0.0096,0.0096,-0.0027,0.0087,0.0132,0.031,0.0404,0.0541,0.0632,0.0792,0.0953,0.1195,0.1328,0.1401,0.1223,0.0544,0.0085,-0.0044,-0.0191,-0.0218,-0.03,-0.0155,-0.0146,-0.0137,-0.0177,-0.0231,-0.0232,-0.0449,-0.0452,-0.0453]}],[{"header":{"parameterUnit":"m.s-1","parameterCategory":2,"la1":30.2991,"la2":30.254,"lo1":-89.0895,"lo2":-89.0444,"dy":0.0017,"dx":0.0017,"nx":28,"ny":28,"refTime":"2023-11-21T03:00:00:Z","depth":"2","parameterNumber":2,"parameterNumberName":"U-component_of_CURRENTS"},"data":[0,0,0,0,0,0,0,0,0,0,0,0,0,0,0,0,0,0,0,0,0,0,0,0,0,0,0,0,0,0,0,0,0,0,0,0,0,0,0,0,0,0,0,0,0,0,0,0,0,0,0,0,0,0,0,0,0,0,0.1669,0.167,0,0.1691,0.1691,0.1691,0.1705,0.1705,0.1706,0.1706,0.1725,0.1725,0.1725,0,0,0,0,0,0,0,0,0,0,0,0,0,0.1672,0.1672,0.1669,0.167,0.167,0.1691,0.1691,0.1691,0.1705,0.1705,0.1706,0.1706,0.1725,0.1725,0.1725,0,0,0,0,0,0,0,0,0,0,0,0,0,0.1677,0.1671,0.1669,0.1682,0.1683,0.1691,0.1691,0.1691,0.1705,0.1705,0.1706,0.1706,0.1724,0.1725,0.1725,0.1715,0,0,0.1726,0.1726,0,0,0,0,0,0,0,0,0.1677,0.1676,0.1679,0.1681,0.1683,0.1698,0.1699,0.17,0.1705,0.1693,0.1706,0.1707,0.1717,0.1718,0.1716,0.1716,0.1717,0.1726,0.1726,0.1726,0.1726,0,0,0,0,0,0,0,0.1676,0.1676,0.1674,0.168,0.1682,0.1698,0.1699,0.1699,0.1699,0.1694,0.1696,0.1703,0.1718,0.1716,0.1717,0.1717,0.1726,0.1726,0.1726,0.1726,0.1818,0.182,0,0,0,0,0,0,0.1677,0.1675,0.1674,0.1675,0.1685,0.1698,0.1698,0.169,0.17,0.1702,0.1703,0.1704,0.1716,0.1717,0.1718,0.1789,0.1726,0.1726,0.1726,0.1816,0.1818,0.1821,0,0,0,0,0,0,0.1677,0.1676,0.1673,0.1679,0.1681,0.1697,0.1688,0.1691,0.1702,0.1707,0.1709,0.1714,0.1716,0.1718,0.1748,0.1787,0.1726,0.1726,0.1813,0.1816,0.182,0.1879,0,0,0,0,0,0,0.1677,0.1676,0.1687,0.1679,0.168,0.1694,0.1688,0.1691,0.1706,0.1708,0.1716,0.1718,0.1717,0.1748,0.1748,0.1786,0.1727,0.181,0.1814,0.1818,0.1874,0.1884,0.1893,0,0,0,0,0,0.1676,0.1688,0.1687,0.1688,0.1689,0.1695,0.1697,0.1709,0.1706,0.1719,0.1733,0.1718,0.1776,0.1749,0.1749,0.1788,0.1808,0.1813,0.1818,0.187,0.1882,0.1893,0,0,0,0,0,0,0.1688,0.169,0.1689,0.1699,0.1704,0.1699,0.1718,0.1714,0.1732,0.1745,0.1735,0.1739,0.1781,0.1779,0.1749,0.1832,0.1794,0.1799,0.1834,0.1845,0.1854,0.1887,0.1727,0,0,0,0,0,0.1697,0.1707,0.1706,0.1713,0.1719,0.1717,0.1726,0.1735,0.1743,0.1751,0.1755,0.1776,0.1799,0.1817,0.1831,0.1868,0.1892,0.1899,0.1909,0.1916,0.1946,0.2019,0.2038,0.1838,0.1838,0.1838,0,0,0.1701,0.1705,0.171,0.1718,0.1722,0.1741,0.1724,0.1746,0.177,0.1751,0.1789,0.18,0.1815,0.1863,0.1884,0.1869,0.1985,0.1923,0.1929,0.1956,0.2027,0.2046,0.2064,0.1841,0.1841,0.184,0,0,0.1723,0.1719,0.1745,0.1756,0.1779,0.1773,0.1781,0.1789,0.1806,0.1839,0.1842,0.1884,0.1901,0.1937,0.1952,0.2022,0.2025,0.2025,0.2104,0.2174,0.2191,0.2207,0.2253,0.2273,0.2037,0.2037,0.2037,0,0.1742,0.1742,0.1753,0.1786,0.1802,0.1787,0.1819,0.183,0.185,0.1883,0.1866,0.1938,0.1944,0.2021,0.2058,0.2044,0.2079,0.2054,0.2186,0.2202,0.2217,0.2261,0.2282,0.2041,0.204,0.204,0.204,0,0.1784,0.1786,0.1798,0.1827,0.1864,0.187,0.19,0.1922,0.1931,0.1957,0.203,0.2044,0.2102,0.2105,0.2106,0.222,0.2207,0.218,0.2155,0.2241,0.2282,0.2302,0.2046,0.2045,0.2043,0.2043,0,0,0.18,0.1819,0.1819,0.1858,0.1878,0.1926,0.1959,0.2003,0.2054,0.2081,0.2168,0.2208,0.2235,0.2258,0.2262,0.2325,0.2451,0.2314,0.2316,0.2355,0.2606,0.245,0.2456,0.245,0.2454,0.2458,0.2588,0,0.1812,0.1872,0.1873,0.1938,0.198,0.1989,0.2028,0.2096,0.2127,0.2209,0.2254,0.2333,0.2286,0.2337,0.2394,0.2443,0.251,0.2418,0.2522,0.2526,0.2373,0.2476,0.227,0.2357,0.2607,0.2611,0.2613,0,0.1855,0.1886,0.1952,0.2019,0.204,0.2088,0.2183,0.2225,0.2317,0.2343,0.2423,0.2464,0.2576,0.2522,0.2645,0.2592,0.2625,0.2642,0.2646,0.25,0.2408,0.2315,0.2384,0.2646,0.2644,0.2641,0.2639,0,0.1909,0.195,0.2006,0.2029,0.2099,0.2157,0.2203,0.2293,0.2342,0.2469,0.2516,0.2626,0.2705,0.2762,0.2774,0.2749,0.2892,0.2854,0.2738,0.2726,0.2572,0.2538,0.2965,0.2965,0.2964,0.2964,0.2964,0,0.1918,0.1989,0.2048,0.2085,0.2186,0.2257,0.2369,0.2396,0.2482,0.2549,0.2619,0.2676,0.2776,0.2845,0.285,0.284,0.295,0.2786,0.2765,0.2582,0.2549,0.2811,0.2792,0.2969,0.2968,0.2967,0.2966,0,0.1995,0.2005,0.2107,0.2181,0.2217,0.2335,0.2439,0.2485,0.256,0.2651,0.2699,0.2783,0.2851,0.2888,0.2992,0.292,0.2933,0.2898,0.2657,0.2604,0.2713,0.2696,0.2831,0.2826,0.2823,0.282,0.2818,0,0.2067,0.2097,0.2185,0.2225,0.2262,0.2407,0.244,0.2521,0.2556,0.2676,0.2699,0.2821,0.2818,0.2878,0.2832,0.2813,0.2876,0.2589,0.2494,0.2742,0.2708,0.2696,0.2683,0.2326,0.232,0.2315,0.2311,0,0.2166,0.2171,0.2207,0.2264,0.2327,0.2397,0.2472,0.2491,0.2562,0.259,0.2613,0.2641,0.2707,0.2585,0.2559,0.2518,0.2571,0.248,0.2855,0.2356,0.2267,0.2232,0.2238,0.2265,0.227,0.2273,0.2276,0.2277,0.2236,0.2252,0.2234,0.2291,0.2361,0.2353,0.2337,0.2371,0.2379,0.2338,0.2437,0.2359,0.2393,0.2229,0.2155,0.2124,0.2306,0.2196,0.2213,0.2236,0.2118,0.2023,0.1955,0.1958,0.196,0.1962,0.1964,0,0.2224,0.2204,0.2245,0.2259,0.2249,0.2317,0.2305,0.2206,0.2135,0.2123,0.2084,0.1845,0.1762,0.1818,0.1702,0.168,0.1688,0.1609,0.1613,0.166,0.1701,0.1557,0.1246,0.1243,0.1241,0.1239,0,0,0.2227,0.2194,0.2169,0.2133,0.2133,0.2059,0.2004,0.1887,0.1839,0.1653,0.1579,0.1628,0.1726,0.1432,0.1411,0.1314,0.1472,0.1259,0.184,0.1892,0.193,0.2051,0.1881,0,0,0,0,0]},{"header":{"parameterUnit":"m.s-1","parameterCategory":2,"la1":30.2991,"la2":30.254,"lo1":-89.0895,"lo2":-89.0444,"dy":0.0017,"dx":0.0017,"nx":28,"ny":28,"refTime":"2023-11-21T03:00:00:Z","depth":"2","parameterNumber":3,"parameterNumberName":"V-component_of_CURRENTS"},"data":[0,0,0,0,0,0,0,0,0,0,0,0,0,0,0,0,0,0,0,0,0,0,0,0,0,0,0,0,0,0,0,0,0,0,0,0,0,0,0,0,0,0,0,0,0,0,0,0,0,0,0,0,0,0,0,0,0,0,0.0052,0.0051,0,0.0033,0.0033,0.0033,0.0015,0.0014,0.0014,0.0013,0.0003,0.0003,0.0003,0,0,0,0,0,0,0,0,0,0,0,0,0,0.006,0.006,0.0052,0.0051,0.0051,0.0033,0.0033,0.0033,0.0015,0.0014,0.0014,0.0013,0.0003,0.0003,0.0003,0,0,0,0,0,0,0,0,0,0,0,0,0,0.0053,0.006,0.0052,0.0038,0.0036,0.0033,0.0033,0.0033,0.0015,0.0014,0.0014,0.0013,0.0003,0.0003,0.0003,0.0019,0,0,0.0004,0.0004,0,0,0,0,0,0,0,0,0.0053,0.0053,0.004,0.0039,0.0037,0.0024,0.0032,0.0028,0.0015,0.0026,0.0013,0.0013,0.0009,0.0009,0.001,0.0018,0.0018,0.0004,0.0004,0.0004,0.0004,0,0,0,0,0,0,0,0.0054,0.0053,0.0047,0.004,0.0038,0.0028,0.0027,0.0031,0.0024,0.0025,0.0023,0.0017,0.0009,0.001,0.001,0.0018,0.0004,0.0004,0.0004,0.0004,0.0005,0.0005,0,0,0,0,0,0,0.0052,0.0054,0.0048,0.0046,0.0041,0.0029,0.0027,0.0031,0.0024,0.0021,0.0018,0.0016,0.001,0.001,0.001,0.0018,0.0004,0.0004,0.0004,0.0005,0.0005,0.0005,0,0,0,0,0,0,0.0053,0.0052,0.0048,0.0047,0.0045,0.0029,0.0033,0.0031,0.0025,0.0018,0.0015,0.0014,0.001,0.0009,0.0003,0.0018,0.0004,0.0005,0.0005,0.0005,0.0005,0.0042,0,0,0,0,0,0,0.0053,0.0053,0.0049,0.0047,0.0045,0.0047,0.0033,0.0031,0.0022,0.002,0.0014,0.0012,0.0009,0.0003,0.0004,0.0018,0.0005,0.0006,0.0005,0.0005,0.0041,0.0043,0.0045,0,0,0,0,0,0.0054,0.0057,0.005,0.0048,0.0044,0.0047,0.0046,0.0033,0.0022,0.0025,0.0013,0.0012,0.0002,0.0003,0.0004,0.0019,0.0006,0.0005,0.0005,0.004,0.0043,0.0045,0,0,0,0,0,0,0.0059,0.0055,0.0047,0.0048,0.0046,0.0043,0.0041,0.0032,0.0026,0.0019,0.0012,0.0011,0.0015,0.0005,0.0006,0.0016,0.0004,0.0003,0.003,0.0032,0.0034,0.0052,0.0005,0,0,0,0,0,0.0059,0.0063,0.0055,0.0058,0.0055,0.0048,0.0044,0.0035,0.003,0.0026,0.002,0.0012,0.0016,0.0013,0.0014,0.0018,0.0019,0.0025,0.0028,0.0029,0.0043,0.0061,0.0067,0.0004,0.0004,0.0004,0,0,0.0062,0.0061,0.0062,0.006,0.0057,0.0068,0.0045,0.0041,0.0055,0.0027,0.0037,0.0022,0.0019,0.0026,0.0026,0.0018,0.0043,0.0029,0.0031,0.0043,0.0062,0.0068,0.0074,0.0004,0.0004,0.0004,0,0,0.0083,0.0071,0.0082,0.0083,0.0075,0.0074,0.0073,0.0065,0.0062,0.0068,0.0052,0.0043,0.0046,0.0046,0.0049,0.0061,0.0057,0.0053,0.0077,0.0095,0.0101,0.0106,0.0099,0.0103,0.005,0.005,0.005,0,0.0083,0.0111,0.0086,0.01,0.0104,0.0082,0.0099,0.0101,0.0091,0.0096,0.0076,0.0084,0.0066,0.0092,0.0081,0.0071,0.0067,0.0071,0.01,0.0106,0.0111,0.0102,0.0106,0.0051,0.0051,0.0051,0.0051,0,0.0116,0.014,0.015,0.0165,0.0153,0.0174,0.016,0.017,0.0161,0.0154,0.0167,0.0144,0.0148,0.0135,0.0108,0.0131,0.0111,0.0106,0.01,0.012,0.0108,0.0112,0.0054,0.0053,0.0053,0.0052,0,0,0.0133,0.017,0.0179,0.0203,0.0195,0.0198,0.022,0.0239,0.0274,0.0246,0.0285,0.0258,0.0227,0.0226,0.0193,0.019,0.0196,0.0152,0.0152,0.0155,0.0217,0.0183,0.0184,0.0197,0.0198,0.0199,0.0188,0,0.0182,0.024,0.0232,0.0285,0.031,0.0297,0.0332,0.0329,0.0328,0.0358,0.0326,0.0342,0.0269,0.027,0.0253,0.0223,0.0211,0.0198,0.0188,0.0188,0.0165,0.0189,0.0199,0.0189,0.0192,0.0193,0.0193,0,0.0236,0.0262,0.0317,0.0373,0.0381,0.0393,0.0437,0.0466,0.0484,0.0488,0.0476,0.0446,0.0427,0.0371,0.033,0.0323,0.0266,0.0236,0.0235,0.0199,0.0163,0.0172,0.0196,0.02,0.02,0.0199,0.0199,0,0.0279,0.0341,0.0392,0.0403,0.0438,0.0454,0.0476,0.0491,0.054,0.0556,0.059,0.0554,0.0557,0.0493,0.0388,0.0366,0.0348,0.0319,0.0238,0.0234,0.024,0.0234,0.03,0.03,0.03,0.03,0.03,0,0.0371,0.0398,0.0416,0.0439,0.0508,0.0488,0.0567,0.0596,0.0638,0.0703,0.0646,0.0695,0.0588,0.055,0.0441,0.0351,0.0389,0.0253,0.024,0.0248,0.0243,0.0253,0.0248,0.03,0.03,0.03,0.03,0,0.042,0.0442,0.0481,0.0512,0.0531,0.0561,0.0634,0.0706,0.0727,0.0813,0.0822,0.081,0.0762,0.0644,0.0551,0.0436,0.0347,0.03,0.0297,0.0283,0.0203,0.0199,0.0223,0.0222,0.0221,0.022,0.022,0,0.0463,0.0485,0.053,0.0568,0.0578,0.0634,0.0707,0.0749,0.0814,0.0889,0.094,0.0915,0.091,0.0752,0.0562,0.0388,0.0355,0.0266,0.0226,0.0216,0.02,0.0198,0.0196,0.0238,0.0237,0.0237,0.0237,0,0.0501,0.0497,0.0535,0.063,0.0686,0.0778,0.0853,0.0926,0.0989,0.1057,0.1124,0.1122,0.0971,0.0804,0.0555,0.0427,0.0292,0.0253,0.0279,0.0249,0.0227,0.0212,0.021,0.0234,0.0234,0.0234,0.0234,0.0234,0.0519,0.0543,0.0602,0.0689,0.0767,0.0876,0.0963,0.1055,0.1165,0.1249,0.1244,0.1228,0.1037,0.0718,0.0508,0.0272,0.0287,0.0188,0.0191,0.0193,0.0191,0.0168,0.0161,0.0161,0.0161,0.0161,0.0161,0,0.0586,0.0592,0.0669,0.077,0.0873,0.0898,0.1043,0.113,0.1256,0.1314,0.1351,0.1147,0.0966,0.0734,0.0393,0.0195,0.0177,0.0118,0.0146,0.0151,0.0155,0.0151,0.011,0.011,0.0109,0.0108,0,0,0.0588,0.0643,0.0669,0.082,0.0906,0.1029,0.1107,0.1224,0.1289,0.1348,0.1319,0.1286,0.1018,0.0756,0.05,0.0306,0.0266,0.0257,0.0319,0.039,0.0395,0.0219,0.0221,0,0,0,0,0]}],[{"header":{"parameterUnit":"m.s-1","parameterCategory":2,"la1":30.2991,"la2":30.254,"lo1":-89.0895,"lo2":-89.0444,"dy":0.0017,"dx":0.0017,"nx":28,"ny":28,"refTime":"2023-11-21T03:00:00:Z","depth":"4","parameterNumber":2,"parameterNumberName":"U-component_of_CURRENTS"},"data":[0,0,0,0,0,0,0,0,0,0,0,0,0,0,0,0,0,0,0,0,0,0,0,0,0,0,0,0,0,0,0,0,0,0,0,0,0,0,0,0,0,0,0,0,0,0,0,0,0,0,0,0,0,0,0,0,0,0,0.0746,0.0747,0,0.0801,0.0801,0.0801,0.0825,0.0825,0.0826,0.0826,0.0885,0.0886,0.0887,0,0,0,0,0,0,0,0,0,0,0,0,0,0.0667,0.0667,0.0746,0.0747,0.0749,0.0801,0.0801,0.0801,0.0825,0.0825,0.0826,0.0826,0.0885,0.0886,0.0887,0,0,0,0,0,0,0,0,0,0,0,0,0,0.0703,0.0668,0.0746,0.0771,0.0774,0.0801,0.0801,0.0801,0.0825,0.0825,0.0826,0.0827,0.0884,0.0886,0.0887,0.0883,0,0,0.0893,0.0893,0,0,0,0,0,0,0,0,0.0701,0.0705,0.0766,0.077,0.0773,0.0812,0.0795,0.0831,0.0824,0.0799,0.0826,0.0827,0.0864,0.0868,0.0868,0.0886,0.0889,0.0893,0.0894,0.0894,0.0895,0,0,0,0,0,0,0,0.0698,0.0703,0.0761,0.0768,0.0772,0.0782,0.0787,0.0801,0.0822,0.0801,0.0805,0.082,0.0866,0.0866,0.0869,0.0889,0.0893,0.0894,0.0895,0.0896,0.099,0.0992,0,0,0,0,0,0,0.0703,0.0701,0.076,0.0764,0.0745,0.0783,0.0789,0.0794,0.0822,0.0829,0.082,0.0821,0.0863,0.0867,0.0872,0.0933,0.0894,0.0896,0.0897,0.0989,0.0991,0.0992,0,0,0,0,0,0,0.0701,0.0707,0.0758,0.0739,0.0747,0.0784,0.079,0.0795,0.0818,0.0837,0.0843,0.0842,0.0863,0.0869,0.0903,0.0933,0.0897,0.0898,0.0987,0.0989,0.0992,0.1015,0,0,0,0,0,0,0.0698,0.0706,0.0713,0.0739,0.0749,0.0786,0.079,0.0795,0.0829,0.0832,0.0858,0.0862,0.0864,0.09,0.0904,0.0935,0.09,0.0985,0.0988,0.0991,0.1012,0.1017,0.1022,0,0,0,0,0,0.0695,0.0697,0.0712,0.072,0.0756,0.0787,0.0792,0.0817,0.0829,0.084,0.086,0.0863,0.0922,0.0902,0.0907,0.0939,0.0984,0.0987,0.0991,0.101,0.1016,0.1022,0,0,0,0,0,0,0.0671,0.0701,0.0718,0.0731,0.0767,0.0794,0.0809,0.0829,0.0852,0.0858,0.0873,0.0879,0.0924,0.0928,0.0907,0.0977,0.0957,0.0961,0.097,0.0976,0.0981,0.1006,0.0901,0,0,0,0,0,0.0669,0.0676,0.0716,0.0731,0.075,0.0784,0.0803,0.0821,0.0847,0.0858,0.089,0.0916,0.0937,0.0954,0.0976,0.1006,0.1025,0.1034,0.1039,0.1043,0.1068,0.1109,0.112,0.1003,0.1003,0.1003,0,0,0.0667,0.0685,0.0692,0.0727,0.0754,0.0776,0.0796,0.0828,0.0851,0.0861,0.0911,0.0937,0.0951,0.0988,0.1009,0.0997,0.1086,0.1047,0.105,0.1074,0.1114,0.1126,0.1136,0.1006,0.1005,0.1005,0,0,0.0663,0.0683,0.069,0.0712,0.0757,0.078,0.0797,0.0845,0.0874,0.0922,0.0935,0.0987,0.1024,0.1046,0.1056,0.1105,0.1112,0.1111,0.1155,0.1194,0.1204,0.1213,0.1245,0.1256,0.1112,0.1112,0.1112,0,0.0664,0.0672,0.07,0.0712,0.0733,0.0785,0.0802,0.0835,0.0894,0.0931,0.0946,0.1039,0.1056,0.1098,0.1122,0.1118,0.1137,0.1124,0.12,0.1209,0.1218,0.1249,0.1261,0.1113,0.1113,0.1113,0.1113,0,0.065,0.0673,0.0681,0.0711,0.0736,0.076,0.0811,0.0867,0.0922,0.0961,0.1046,0.1083,0.1144,0.1156,0.1157,0.1228,0.122,0.12,0.1181,0.1231,0.126,0.1273,0.1115,0.1115,0.1114,0.1114,0,0,0.0608,0.0663,0.0664,0.069,0.0735,0.0758,0.0817,0.0887,0.0953,0.102,0.11,0.1159,0.1207,0.1224,0.1239,0.1283,0.1361,0.1277,0.1278,0.1303,0.1449,0.1323,0.1325,0.1349,0.1351,0.1353,0.1441,0,0.0596,0.0612,0.0645,0.0682,0.07,0.0771,0.0833,0.0902,0.0983,0.1078,0.1136,0.121,0.1217,0.1263,0.1309,0.1355,0.1398,0.134,0.1403,0.1405,0.1282,0.1336,0.1361,0.145,0.1453,0.1455,0.1457,0,0.0552,0.0579,0.0603,0.0691,0.071,0.0752,0.0869,0.0916,0.1046,0.1143,0.1229,0.1264,0.1351,0.1346,0.1455,0.1417,0.1449,0.1476,0.1479,0.1368,0.1303,0.1393,0.148,0.1478,0.1476,0.1475,0.1473,0,0.0487,0.0544,0.0568,0.0585,0.0694,0.0751,0.0807,0.0934,0.1032,0.1163,0.1269,0.1347,0.1421,0.1468,0.1518,0.1499,0.1626,0.1594,0.1509,0.15,0.1576,0.1565,0.1674,0.1674,0.1674,0.1674,0.1673,0,0.0445,0.0476,0.055,0.0572,0.0656,0.0706,0.0826,0.0936,0.1096,0.1204,0.1278,0.1377,0.1462,0.1519,0.1546,0.1566,0.1645,0.1539,0.1521,0.1582,0.1571,0.1584,0.1572,0.1677,0.1676,0.1676,0.1675,0,0.042,0.0438,0.0505,0.0609,0.0637,0.0697,0.0867,0.0959,0.1111,0.1255,0.1301,0.1446,0.1511,0.1562,0.1649,0.1603,0.1625,0.1607,0.1681,0.1661,0.1471,0.146,0.1532,0.1528,0.1525,0.1523,0.152,0,0.041,0.0431,0.054,0.0574,0.0641,0.0729,0.0804,0.0975,0.1062,0.1272,0.1321,0.1437,0.1504,0.1531,0.1586,0.1614,0.1592,0.1585,0.1527,0.1485,0.1461,0.1454,0.1447,0.1516,0.1515,0.1514,0.1513,0,0.0441,0.0492,0.0564,0.0613,0.0681,0.0761,0.0848,0.0935,0.1092,0.125,0.1331,0.1364,0.1436,0.1465,0.1497,0.1509,0.1576,0.1553,0.1559,0.1505,0.1466,0.1443,0.144,0.1503,0.1504,0.1505,0.1506,0,0.0481,0.0549,0.0607,0.0661,0.0713,0.0733,0.0808,0.088,0.099,0.1195,0.1206,0.132,0.142,0.1412,0.1436,0.1439,0.142,0.1359,0.1375,0.1387,0.1294,0.1222,0.1186,0,0,0,0,0,0.051,0.0569,0.0623,0.0651,0.0693,0.0708,0.0803,0.0868,0.1007,0.1041,0.1134,0.1183,0.1239,0.1283,0.1261,0.1366,0.1417,0.1331,0.1353,0.1445,0.1457,0.1358,0,0,0,0,0,0,0.0525,0.06,0.0626,0.0607,0.0606,0.0635,0.069,0.0785,0.0796,0.0946,0.0977,0.1089,0.1151,0.1241,0.1231,0.1247,0.123,0.1406,0.1402,0.1438,0.1449,0.1458,0.1361,0,0,0,0,0]},{"header":{"parameterUnit":"m.s-1","parameterCategory":2,"la1":30.2991,"la2":30.254,"lo1":-89.0895,"lo2":-89.0444,"dy":0.0017,"dx":0.0017,"nx":28,"ny":28,"refTime":"2023-11-21T03:00:00:Z","depth":"4","parameterNumber":3,"parameterNumberName":"V-component_of_CURRENTS"},"data":[0,0,0,0,0,0,0,0,0,0,0,0,0,0,0,0,0,0,0,0,0,0,0,0,0,0,0,0,0,0,0,0,0,0,0,0,0,0,0,0,0,0,0,0,0,0,0,0,0,0,0,0,0,0,0,0,0,0,0.0288,0.0288,0,0.0279,0.0279,0.028,0.0279,0.0279,0.0279,0.0278,0.0284,0.0285,0.0285,0,0,0,0,0,0,0,0,0,0,0,0,0,0.0294,0.0294,0.0289,0.0288,0.0288,0.0279,0.0279,0.028,0.0279,0.0279,0.0279,0.0278,0.0284,0.0285,0.0285,0,0,0,0,0,0,0,0,0,0,0,0,0,0.0292,0.0294,0.0289,0.0284,0.0284,0.0279,0.0279,0.028,0.0279,0.0279,0.0279,0.0278,0.0284,0.0284,0.0285,0.0293,0,0,0.0286,0.0287,0,0,0,0,0,0,0,0,0.0292,0.0292,0.0285,0.0285,0.0284,0.0277,0.0283,0.0284,0.0279,0.0284,0.0278,0.0278,0.0282,0.0282,0.0285,0.0293,0.0293,0.0286,0.0287,0.0287,0.0287,0,0,0,0,0,0,0,0.0292,0.0292,0.0288,0.0285,0.0284,0.0278,0.0278,0.0283,0.0287,0.0283,0.0283,0.0277,0.0282,0.0285,0.0285,0.0293,0.0286,0.0287,0.0287,0.0287,0.032,0.032,0,0,0,0,0,0,0.0288,0.0292,0.0288,0.0287,0.0284,0.0278,0.0278,0.0282,0.0286,0.0286,0.0277,0.0277,0.0284,0.0285,0.0285,0.0306,0.0287,0.0287,0.0288,0.0319,0.032,0.032,0,0,0,0,0,0,0.0288,0.0288,0.0288,0.0287,0.0286,0.0278,0.0283,0.0282,0.0285,0.0281,0.0281,0.028,0.0284,0.0285,0.0296,0.0306,0.0288,0.0288,0.0318,0.0319,0.032,0.034,0,0,0,0,0,0,0.0289,0.0289,0.0296,0.0287,0.0286,0.029,0.0283,0.0282,0.028,0.028,0.0284,0.0284,0.0284,0.0295,0.0296,0.0306,0.0288,0.0318,0.0319,0.032,0.0339,0.0341,0.0344,0,0,0,0,0,0.0289,0.0297,0.0296,0.0296,0.0294,0.029,0.029,0.0285,0.0281,0.0287,0.029,0.0284,0.0303,0.0296,0.0297,0.0307,0.0317,0.0319,0.032,0.0337,0.0341,0.0344,0,0,0,0,0,0,0.0298,0.0297,0.0296,0.0302,0.0298,0.0289,0.0293,0.0287,0.0294,0.03,0.0292,0.0293,0.0305,0.0305,0.0297,0.032,0.0309,0.0311,0.0322,0.0325,0.0328,0.0327,0.0289,0,0,0,0,0,0.0304,0.0316,0.0305,0.0313,0.0311,0.0303,0.0302,0.0302,0.0301,0.0304,0.03,0.0305,0.0312,0.0317,0.0322,0.0336,0.0311,0.0343,0.0346,0.0348,0.0349,0.0314,0.0313,0.0325,0.0325,0.0325,0,0,0.0307,0.0311,0.0316,0.0317,0.0315,0.0326,0.0303,0.0309,0.0322,0.0305,0.0321,0.0313,0.0317,0.0332,0.0338,0.0333,0.0332,0.035,0.0352,0.0351,0.0315,0.0313,0.0312,0.0326,0.0325,0.0325,0,0,0.0328,0.0326,0.0345,0.0346,0.0348,0.0345,0.0346,0.0339,0.0341,0.0354,0.0344,0.0338,0.0352,0.035,0.0353,0.0373,0.0345,0.0379,0.0394,0.036,0.0358,0.0356,0.032,0.0315,0.0382,0.0382,0.0382,0,0.0331,0.036,0.0348,0.0366,0.0369,0.0356,0.0374,0.0377,0.0375,0.0373,0.0366,0.0361,0.0361,0.0368,0.0378,0.0378,0.0353,0.0381,0.0361,0.0359,0.0357,0.0321,0.0315,0.0383,0.0383,0.0383,0.0383,0,0.0374,0.0391,0.04,0.0424,0.0422,0.0438,0.0433,0.0441,0.0436,0.0425,0.042,0.0406,0.0399,0.0399,0.0399,0.0388,0.0373,0.0365,0.035,0.0356,0.0318,0.0312,0.0385,0.0384,0.0384,0.0384,0,0,0.0401,0.0426,0.0434,0.0447,0.0457,0.046,0.0484,0.049,0.0499,0.0482,0.0474,0.0473,0.044,0.0441,0.0424,0.0397,0.0359,0.0379,0.0377,0.0338,0.0279,0.0277,0.0269,0.0345,0.0344,0.0343,0.0257,0,0.0443,0.049,0.049,0.0525,0.054,0.0533,0.0547,0.0547,0.0542,0.0531,0.0495,0.0485,0.0464,0.0456,0.0423,0.0379,0.0343,0.0383,0.0283,0.028,0.0273,0.0262,0.034,0.0252,0.025,0.0249,0.0248,0,0.0489,0.0517,0.056,0.0569,0.0573,0.0593,0.0608,0.0614,0.0596,0.0589,0.056,0.0523,0.0484,0.0461,0.0372,0.0398,0.0342,0.0299,0.0294,0.0281,0.0267,0.0245,0.0236,0.0237,0.0238,0.0238,0.0239,0,0.0519,0.0557,0.0596,0.0605,0.0619,0.0638,0.064,0.0633,0.0645,0.0618,0.0618,0.0551,0.0526,0.0443,0.0359,0.0363,0.0251,0.0242,0.0182,0.0181,0.0198,0.0201,0.0169,0.0169,0.0169,0.0169,0.0169,0,0.0556,0.0584,0.0619,0.0643,0.0677,0.0663,0.0696,0.0692,0.0692,0.0695,0.064,0.0629,0.0521,0.0445,0.0359,0.0252,0.0247,0.0179,0.0157,0.021,0.0215,0.0193,0.0197,0.0166,0.0167,0.0167,0.0168,0,0.0568,0.0599,0.0635,0.0674,0.0692,0.0705,0.0743,0.0762,0.0758,0.0763,0.0755,0.069,0.0592,0.0477,0.034,0.0263,0.0154,0.0116,0.0178,0.0163,0.0104,0.011,0.0034,0.0033,0.0032,0.0032,0.0031,0,0.0573,0.0602,0.0659,0.0685,0.0708,0.0746,0.0775,0.0795,0.0815,0.0798,0.0793,0.0714,0.0653,0.0458,0.0336,0.0158,0.0137,0.0069,0.0086,0.0103,0.0089,0.0097,0.0103,0.003,0.003,0.003,0.003,0,0.0577,0.0603,0.0628,0.0696,0.0741,0.0794,0.0835,0.0865,0.0872,0.0877,0.0826,0.0724,0.0611,0.0459,0.0325,0.0198,0.0106,0.0062,0.0062,0.0077,0.0097,0.0086,0.0094,0.0027,0.0028,0.0028,0.0028,0,0.0573,0.058,0.0631,0.0684,0.0748,0.0818,0.0845,0.087,0.0895,0.0875,0.0855,0.0734,0.0665,0.0479,0.0353,0.0231,0.0198,0.0148,0.0143,0.0144,0.0206,0.0249,0.0203,0,0,0,0,0,0.0568,0.0586,0.0622,0.0688,0.0757,0.0809,0.0873,0.0896,0.0918,0.0885,0.0876,0.0768,0.0583,0.05,0.0379,0.0338,0.0177,0.019,0.0117,0.0015,0.0017,0.0071,0,0,0,0,0,0,0.0561,0.0596,0.0612,0.0698,0.0747,0.0834,0.0881,0.0896,0.088,0.0872,0.0779,0.0726,0.0551,0.0655,0.0373,0.0337,0.0269,0.0105,0.0102,0.0013,0.0015,0.0018,0.0073,0,0,0,0,0]}]]